Theta_e
315 315 318 326 322 324 332 344 346 348 346 346 345 348 348 344 345 337 340 341 337 336 333 333 330 330 335 334 332 332 333 333 333 334 334 334 333 330 328 328 327 326 327 327 328 331 335 339 342
315 319 321 316 321 323 324 332 345 343 344 344 345 345 346 349 345 344 343 342 336 336 334 334 333 331 334 334 335 332 334 334 335 336 335 334 331 329 328 326 326 328 329 330 330 331 332 330 332
317 321 315 316 316 321 323 329 340 343 344 345 346 345 346 348 345 344 342 341 337 338 337 334 335 333 333 335 334 333 333 334 335 336 336 335 332 330 327 326 330 333 336 336 335 333 333 333 332
321 313 309 314 316 317 321 323 330 333 339 340 345 347 342 342 346 343 342 344 340 338 338 335 335 335 334 335 334 332 332 333 334 336 336 334 332 330 327 327 332 339 339 335 335 336 336 336 335
318 307 311 313 313 313 314 315 315 318 328 346 348 347 345 342 345 344 344 341 340 340 339 337 335 337 335 335 335 333 332 333 334 336 335 334 332 330 328 327 332 339 337 330 328 333 333 331 331
314 307 311 312 313 314 314 314 314 316 341 347 348 349 348 343 347 348 348 341 342 339 340 339 336 337 337 335 336 335 332 333 334 335 335 333 332 330 329 327 331 339 330 321 319 320 324 325 324
314 309 312 313 315 315 316 313 326 346 347 350 348 354 350 349 346 348 347 346 344 343 343 340 338 337 339 337 336 336 335 334 335 335 335 333 331 330 329 327 331 332 321 319 317 319 320 320 321
309 309 315 313 314 315 315 314 314 339 345 348 348 350 348 346 348 346 345 346 346 349 348 345 340 339 340 339 337 336 336 335 337 337 336 333 331 329 330 328 332 330 321 320 318 320 322 324 325
310 312 312 316 316 315 313 314 316 317 349 343 346 346 341 347 348 345 346 348 349 351 352 349 341 340 339 340 339 338 337 335 336 336 336 333 331 328 329 331 333 335 323 322 322 323 324 326 328
311 311 314 313 315 316 314 316 316 317 323 339 339 337 344 344 344 344 349 349 350 352 353 350 347 343 341 341 341 340 340 337 337 335 336 333 331 330 335 334 338 337 329 323 324 325 326 327 328
312 313 313 314 314 314 315 314 317 318 319 319 336 336 340 340 343 347 348 348 348 348 351 351 347 345 345 343 342 341 342 339 337 335 335 333 332 330 339 341 341 340 335 327 328 328 329 327 328
315 313 314 313 315 314 315 315 317 317 317 318 318 333 338 339 344 346 349 349 348 346 345 348 349 346 339 341 342 341 342 341 337 334 333 333 331 330 338 342 342 341 340 335 330 330 327 328 328
314 314 313 313 310 311 312 313 315 317 317 315 337 335 337 337 339 346 349 350 349 347 339 339 343 342 341 340 337 338 339 340 337 334 333 332 331 330 338 341 342 341 341 341 336 334 329 327 328
312 312 312 311 312 311 314 314 314 316 316 318 337 336 333 335 340 347 350 349 349 347 344 341 339 339 338 336 338 337 338 336 337 333 331 331 331 331 337 341 342 343 342 342 342 337 333 330 328
314 314 311 313 313 314 313 314 315 315 315 315 325 331 337 338 343 345 349 349 348 347 345 343 343 343 338 334 333 334 334 335 334 331 330 330 331 332 336 338 342 342 342 342 344 342 334 330 328
313 309 311 312 312 314 315 313 313 312 313 314 314 312 316 338 343 343 347 348 348 347 347 346 343 340 338 338 333 333 331 332 330 330 329 330 331 333 339 342 344 342 341 342 343 344 341 331 326
309 312 313 312 312 315 316 314 315 314 312 313 313 325 333 343 342 343 344 346 347 347 346 345 344 342 338 338 337 335 339 337 334 333 331 334 337 338 339 342 345 343 341 343 339 337 333 329 326
314 313 312 312 313 312 312 312 314 315 312 313 314 336 343 344 343 344 343 343 343 342 339 341 343 343 343 341 338 339 340 340 340 339 337 340 341 341 341 341 343 343 340 342 339 332 331 334 333
313 313 313 313 314 314 313 313 315 314 313 312 316 334 341 343 338 339 340 342 342 340 339 339 340 341 342 342 341 342 343 342 342 341 341 343 342 341 342 342 343 343 340 340 346 346 339 337 335
313 313 313 313 314 312 315 315 315 316 316 315 325 333 335 334 334 333 339 341 342 341 339 337 337 340 341 342 342 345 346 346 344 344 346 345 345 344 344 343 343 343 342 339 339 341 345 339 336
316 315 316 316 317 316 316 314 315 315 318 322 325 333 334 335 336 346 346 346 346 344 343 342 341 339 341 345 343 343 347 346 345 346 349 350 351 349 347 345 344 344 342 341 339 339 342 344 338
318 317 316 318 317 317 316 318 314 317 323 326 324 327 338 341 348 346 341 342 343 344 348 350 351 348 347 350 347 347 346 345 346 349 349 350 351 350 350 347 346 344 342 342 341 340 345 344 339
320 319 318 318 317 316 316 315 314 327 328 328 327 337 336 340 339 336 334 334 335 338 343 348 351 352 352 352 352 353 350 351 351 351 352 351 351 352 348 347 345 344 343 342 342 340 341 343 341
319 318 317 314 313 318 316 315 314 330 328 328 327 334 335 335 333 331 330 330 332 334 336 339 341 339 341 343 346 349 348 346 346 347 348 348 350 351 350 348 346 345 345 344 342 341 340 340 341
315 317 320 320 319 320 320 319 329 328 325 325 326 326 329 332 332 331 329 328 327 329 329 331 333 334 336 336 335 336 336 338 338 340 342 344 346 348 349 349 347 346 345 344 343 342 342 341 342
317 318 319 325 325 323 320 328 333 326 323 323 323 322 322 321 324 328 329 328 327 328 329 328 328 327 327 328 328 327 327 331 334 336 336 336 338 340 344 346 347 348 348 347 345 343 342 341 342
318 320 319 321 323 325 322 331 330 329 325 323 323 322 322 320 318 318 318 317 317 317 317 320 320 321 322 320 320 324 324 323 323 324 327 333 335 335 334 337 342 344 346 347 346 346 344 343 342
321 319 322 319 322 324 326 325 331 333 327 323 322 322 321 321 320 319 316 313 313 314 314 315 316 316 316 317 317 317 316 317 318 320 322 321 322 326 333 333 335 340 343 345 346 344 345 344 343
319 322 322 319 324 329 326 325 330 331 328 324 322 321 320 320 320 319 318 315 312 313 313 313 313 313 313 314 314 315 315 315 316 316 319 322 320 319 326 333 333 334 339 342 345 345 344 342 343
320 323 320 318 318 323 323 323 324 327 326 325 323 322 322 322 320 320 318 319 313 312 312 312 313 313 313 312 312 312 312 313 313 313 314 316 320 320 320 323 328 332 333 337 341 343 343 343 343
Wind_Speed
9 8 3 3 4 5 4 5 3 3 5 4 2 3 3 3 4 4 3 26 34 39 36 32 30 27 24 22 22 21 22 21 21 20 19 17 15 14 13 12 12 11 10 8 8 9 9 10 9
9 3 3 2 4 2 5 5 7 4 2 10 7 5 3 2 1 4 14 23 34 42 38 34 31 28 27 23 21 20 19 19 18 17 16 15 14 13 12 11 10 9 9 7 7 7 8 8 8
5 1 3 4 3 5 4 4 8 4 9 2 3 3 4 7 2 12 8 27 39 42 38 35 32 30 28 26 22 20 19 17 16 15 14 13 12 11 10 10 9 8 8 7 7 7 7 7 6
1 5 4 4 7 5 5 5 7 6 6 7 2 2 1 1 6 11 21 32 43 42 39 35 33 30 29 27 24 21 19 17 15 14 12 11 10 9 8 8 7 7 6 6 6 6 7 7 6
4 3 3 2 4 6 6 7 8 6 5 6 6 5 3 3 9 18 28 38 45 41 39 36 34 31 29 28 26 23 21 18 16 14 12 10 8 7 6 6 6 5 4 4 4 4 5 6 5
4 3 4 3 4 6 7 8 6 8 8 7 4 7 3 12 18 25 30 42 42 43 39 36 33 30 28 26 25 23 21 19 18 15 12 10 8 6 5 5 4 3 2 3 4 4 3 3 3
6 4 4 2 5 6 5 10 5 2 6 5 6 6 2 7 14 26 31 36 38 38 38 36 33 30 26 24 23 22 20 18 17 15 13 11 8 6 4 4 3 2 2 3 4 4 3 2 1
5 4 2 2 2 6 4 9 8 5 2 3 1 4 5 5 25 23 31 32 35 32 32 34 33 29 27 25 22 21 20 17 15 14 12 10 8 6 4 2 2 1 2 3 3 3 3 3 2
4 4 1 3 2 8 6 8 5 3 4 1 2 2 1 21 26 28 25 25 30 27 24 29 33 31 28 25 22 21 19 18 16 14 12 10 8 6 5 3 3 2 1 2 3 1 1 3 5
4 4 7 7 3 6 9 3 6 5 4 4 4 2 12 24 25 27 23 22 23 22 23 28 29 31 29 27 24 22 20 19 17 16 15 13 10 7 6 5 4 3 3 2 2 1 1 4 6
3 5 5 5 7 4 7 10 2 2 0 4 6 4 6 14 17 16 16 21 27 29 24 24 29 28 26 27 26 24 23 21 20 17 16 14 12 11 9 8 7 6 6 6 4 3 4 4 5
1 6 3 6 2 3 5 5 5 5 8 5 8 5 5 9 13 19 19 23 27 34 36 30 29 31 31 28 26 25 25 23 22 20 18 17 16 14 13 11 9 9 8 9 9 5 3 3 3
3 5 4 5 8 7 3 8 7 6 5 6 2 10 8 8 10 20 24 26 28 31 37 39 37 34 30 31 30 29 28 27 24 23 21 20 19 17 16 14 12 10 12 12 11 10 8 4 2
3 5 6 6 6 4 3 5 7 8 7 6 6 9 10 7 9 18 22 26 34 39 37 39 45 43 38 35 29 30 31 28 26 25 23 22 21 21 19 16 14 13 14 14 16 12 12 10 9
2 6 6 3 2 5 3 8 4 8 2 8 8 8 9 11 15 22 34 35 41 42 38 37 38 39 40 37 33 31 30 30 29 27 25 25 23 23 22 20 17 16 15 17 17 17 14 13 10
5 5 5 6 6 5 4 8 12 12 5 11 10 7 9 9 17 22 30 33 34 36 41 38 36 40 40 36 34 32 30 30 29 27 27 25 23 24 24 23 20 14 14 15 16 18 18 16 12
7 2 4 10 5 3 2 10 13 11 7 13 10 9 9 7 6 21 28 34 35 38 39 37 33 37 38 32 29 27 27 26 26 24 26 24 23 23 25 26 22 18 12 13 15 16 18 16 13
4 4 4 6 6 6 7 10 11 14 10 15 3 7 7 8 9 18 24 23 27 32 26 30 33 30 31 31 25 26 26 25 26 27 28 26 27 26 26 26 26 20 17 10 16 16 16 14 12
3 3 5 12 15 3 10 6 13 11 6 7 7 8 8 9 4 7 10 15 18 16 19 25 24 21 26 26 25 23 26 24 29 32 26 25 30 29 28 30 28 25 21 17 13 17 18 16 10
5 5 9 8 11 4 9 10 7 5 5 4 9 10 9 5 7 5 10 12 14 17 18 20 20 23 19 23 30 24 26 28 27 22 24 27 24 27 29 33 33 28 24 22 19 16 16 18 14
3 4 5 7 11 3 4 7 6 5 10 13 8 3 6 6 8 6 8 11 9 14 16 20 25 20 21 23 27 27 19 17 16 15 18 17 16 19 24 30 31 32 27 25 24 23 20 19 17
2 5 7 6 3 6 2 9 5 8 5 14 12 8 8 6 8 10 8 11 13 10 11 11 10 19 19 15 18 20 18 24 20 17 18 16 17 20 23 26 29 33 33 27 24 20 20 20 21
3 9 6 5 5 3 2 1 5 7 7 13 11 9 10 11 12 10 11 16 17 19 21 20 23 20 14 14 14 16 6 8 5 2 3 8 15 18 14 22 27 28 27 26 25 23 20 21 21
8 7 5 5 2 4 6 3 4 4 6 7 9 11 10 12 11 8 13 16 22 24 25 28 30 28 25 24 19 14 10 7 6 5 3 6 6 8 12 14 18 21 24 24 26 21 19 22 23
12 8 5 5 4 5 6 3 2 6 5 6 6 11 11 11 9 7 6 11 20 26 26 27 32 30 28 27 27 24 22 16 14 11 9 8 7 7 8 9 16 20 21 22 23 24 22 23 24
5 4 4 5 2 5 5 4 3 7 5 7 8 13 15 15 8 8 8 13 19 26 27 30 32 32 30 29 28 26 25 22 19 17 15 12 11 10 11 11 13 15 18 22 22 23 25 27 24
4 2 1 1 2 3 3 2 3 6 4 6 12 15 14 13 14 12 12 18 18 26 30 30 30 29 29 27 26 26 24 23 22 19 17 15 14 14 13 12 15 15 17 18 18 25 25 27 24
3 2 1 3 1 4 4 4 4 10 7 5 11 12 8 12 12 10 15 14 15 23 29 26 29 29 27 26 25 25 25 25 23 22 19 17 18 19 18 17 15 14 15 17 19 21 25 25 23
4 3 5 3 2 2 2 4 6 6 9 8 10 10 8 12 7 5 9 19 15 23 18 22 24 24 23 21 20 20 21 22 22 23 22 19 19 21 21 19 19 17 15 12 14 18 20 20 19
3 2 3 4 3 2 2 6 3 4 4 9 5 9 10 15 7 6 16 20 18 13 13 19 19 21 19 17 17 20 21 22 22 23 24 22 20 18 19 19 19 18 14 15 13 13 14 15 16
Wind_Direction
332 325 302 36 42 62 290 260 236 246 181 174 189 168 268 104 166 213 288 160 169 166 170 168 166 163 156 150 146 140 135 130 127 124 122 121 120 118 118 117 118 120 122 125 127 122 121 121 121
335 14 80 78 91 57 269 271 250 347 281 107 89 104 217 157 233 116 132 168 173 170 171 172 169 165 161 156 151 146 141 136 132 128 127 129 128 125 124 123 122 123 123 122 122 122 123 130 135
342 123 86 102 128 190 225 246 280 124 170 352 147 268 175 163 138 168 175 172 172 172 174 174 172 169 166 162 156 152 149 145 140 136 134 133 128 124 123 124 125 125 123 120 118 115 115 122 132
28 20 31 104 227 255 223 263 261 152 249 216 147 212 302 239 130 176 166 172 172 174 176 177 175 174 171 168 163 159 157 155 152 147 142 139 133 126 125 126 127 130 130 128 126 118 114 115 116
55 58 55 352 277 269 264 248 234 234 217 177 158 200 164 190 186 185 173 175 175 175 178 180 179 178 177 173 169 166 164 163 162 159 154 150 143 136 132 134 135 136 136 142 144 138 128 125 123
43 97 63 250 283 267 278 267 270 199 170 151 165 126 193 162 158 164 168 175 179 175 180 181 182 183 181 180 175 173 171 170 169 168 165 161 155 149 145 146 145 142 145 149 154 159 155 144 127
118 90 204 161 267 300 253 322 16 69 114 223 144 119 228 200 181 162 166 170 176 176 180 182 182 184 186 188 182 180 180 178 176 175 174 171 165 164 165 162 159 142 131 134 138 137 134 126 99
109 92 86 332 256 274 288 358 312 15 223 98 43 172 220 164 181 157 164 168 174 176 181 184 181 184 188 190 191 188 187 186 187 186 184 183 179 173 181 202 198 163 133 123 128 125 114 96 67
121 60 134 237 246 276 293 27 296 267 145 298 228 228 355 127 150 148 146 156 169 175 180 186 182 186 190 194 194 195 195 193 193 195 198 198 199 193 192 202 240 262 198 160 155 143 49 23 24
97 123 214 202 241 286 306 20 339 24 20 309 302 100 131 131 142 152 155 154 157 168 183 187 186 188 190 194 197 199 201 202 202 204 205 208 210 216 213 216 231 252 253 233 212 227 312 23 51
150 188 213 234 247 251 282 310 196 174 281 266 264 226 156 136 159 156 152 160 166 178 184 192 189 190 192 196 199 200 205 206 208 213 215 217 218 221 225 229 240 253 258 256 264 277 317 26 59
303 244 218 278 302 326 268 284 276 207 209 210 254 132 163 166 160 167 161 161 172 183 194 195 196 194 194 197 203 206 207 210 214 215 217 220 226 227 228 235 241 253 259 263 263 262 310 350 56
200 280 296 273 287 241 266 249 237 249 228 236 238 136 206 176 150 174 170 170 177 189 195 202 201 202 196 197 201 207 212 214 217 220 224 225 227 232 230 237 246 252 266 266 264 259 245 256 292
217 265 283 279 281 255 228 266 138 265 267 170 171 228 172 165 166 155 165 174 184 195 197 200 203 201 196 196 206 210 213 215 220 223 227 229 233 238 234 241 252 257 263 268 261 256 252 262 260
280 336 342 323 25 307 280 334 251 244 294 271 203 224 230 152 170 179 183 183 192 201 199 203 205 205 201 202 204 213 218 220 221 226 232 232 235 239 242 244 253 265 267 274 262 247 242 254 248
15 49 8 291 329 309 86 277 281 276 249 251 246 200 244 167 188 195 189 190 195 194 200 201 201 205 208 210 201 210 218 224 227 230 236 237 238 240 240 240 244 249 256 267 270 243 240 241 231
6 284 320 324 301 340 28 291 285 291 241 250 246 162 183 158 197 197 194 193 191 195 200 196 194 202 204 209 207 211 221 225 231 235 239 238 237 236 238 239 245 243 240 245 249 232 221 230 228
289 333 301 273 279 339 306 268 290 290 243 233 177 155 166 167 200 198 191 184 186 193 195 196 200 208 208 209 210 215 221 229 239 241 238 234 237 237 238 240 241 246 240 243 226 221 227 241 245
247 238 257 278 282 260 274 277 288 309 298 239 174 166 189 176 165 178 176 190 185 193 203 209 203 206 204 209 206 216 222 235 231 240 242 257 250 244 241 243 241 240 242 239 224 227 234 244 237
231 262 280 284 275 152 287 288 285 302 304 266 169 161 177 152 134 138 150 185 202 213 217 212 222 231 226 225 213 214 223 231 234 240 253 256 256 250 243 239 239 237 240 239 235 232 231 237 234
268 217 265 253 305 255 267 303 329 344 32 20 2 16 137 155 127 108 95 115 163 199 218 231 236 233 222 218 216 213 219 222 247 248 251 249 243 241 244 239 239 242 241 241 238 233 228 232 228
300 295 265 266 347 291 121 286 307 350 353 12 358 13 12 32 106 102 70 64 78 86 123 151 185 214 214 194 203 200 210 224 246 259 267 269 262 252 248 246 241 239 241 243 239 229 229 228 226
270 315 285 261 246 302 66 59 253 353 333 354 333 56 46 59 62 47 72 73 74 78 76 86 99 102 119 171 188 191 164 107 101 125 283 285 267 268 263 259 252 251 246 246 255 243 232 230 233
307 341 8 25 92 268 337 195 270 345 331 331 343 52 60 80 62 49 44 77 85 82 77 80 82 78 78 81 81 108 103 84 74 47 350 357 324 289 273 268 258 259 262 255 251 257 246 247 248
6 34 348 327 353 247 334 16 292 352 353 347 341 50 49 58 62 46 10 53 68 74 77 77 81 76 75 74 76 76 75 67 52 49 29 359 345 330 325 287 271 264 260 265 261 264 266 261 254
284 134 165 276 274 274 341 320 342 89 70 57 52 69 56 57 37 42 28 47 60 68 72 72 70 68 65 62 61 60 61 57 50 42 30 18 4 341 318 303 292 279 272 266 265 254 257 261 262
308 49 206 144 313 347 237 139 201 160 117 86 72 67 60 51 40 33 52 68 70 72 72 74 69 67 62 55 51 49 46 40 34 31 25 15 6 359 353 328 302 293 286 276 266 258 258 257 257
56 116 15 14 314 288 304 286 295 181 161 136 76 72 57 57 36 17 30 20 55 77 83 84 75 69 62 53 46 40 35 31 27 19 10 6 360 356 353 355 348 324 301 277 266 261 253 257 258
350 21 54 97 161 230 293 272 6 290 171 191 123 101 81 51 20 349 25 24 65 64 74 72 71 63 57 49 40 35 26 23 19 13 4 352 352 352 348 349 355 353 342 318 282 268 257 255 261
94 134 127 122 249 256 290 261 160 100 190 254 192 160 164 120 280 319 38 10 356 79 41 49 56 49 40 29 19 15 12 11 12 11 7 360 340 338 341 341 346 357 350 338 310 284 277 268 245